Time+03,TemperatureF,Dew PointF,Humidity,Sea Level PressureIn,VisibilityMPH,Wind Direction,Wind SpeedMPH,Gust SpeedMPH,PrecipitationIn,Events,Conditions,WindDirDegrees,DateUTC
12:00 AM,67,45,34,30.00,10,WNW,8.1,,,,,300,2014-03-02 21:00:00
12:00 AM,68.0,44.6,43,29.98,-9999.0,WNW,8.1,-,N/A,,Clear,300,2014-03-02 21:00:00
12:30 AM,68.0,46.4,46,29.98,-9999.0,NW,5.8,-,N/A,,Clear,310,2014-03-02 21:30:00
1:00 AM,66.2,46.4,49,29.98,-9999.0,NW,6.9,-,N/A,,Clear,310,2014-03-02 22:00:00
1:30 AM,66.2,48.2,52,29.95,-9999.0,NW,5.8,-,N/A,,Clear,310,2014-03-02 22:30:00
2:00 AM,66.2,50.0,56,29.95,-9999.0,Variable,2.3,-,N/A,,Clear,0,2014-03-02 23:00:00
2:30 AM,64.4,50.0,59,29.95,-9999.0,West,4.6,-,N/A,,Clear,260,2014-03-02 23:30:00
3:00 AM,64,51,53,29.95,10,West,3.5,,,,,270,2014-03-03 00:00:00
3:00 AM,64.4,51.8,64,29.95,-9999.0,West,3.5,-,N/A,,Clear,270,2014-03-03 00:00:00
3:30 AM,62.6,51.8,68,29.92,-9999.0,WSW,4.6,-,N/A,,Clear,250,2014-03-03 00:30:00
4:00 AM,62.6,51.8,68,29.92,-9999.0,West,4.6,-,N/A,,Clear,260,2014-03-03 01:00:00
4:30 AM,62.6,51.8,68,29.95,-9999.0,West,4.6,-,N/A,,Clear,260,2014-03-03 01:30:00
5:00 AM,62.6,51.8,68,29.95,-9999.0,Variable,3.5,-,N/A,,Clear,0,2014-03-03 02:00:00
5:30 AM,62.6,55.4,77,29.95,-9999.0,West,5.8,-,N/A,,Clear,260,2014-03-03 02:30:00
6:00 AM,63,55,68,29.97,6,,4.6,,,,Clear,,2014-03-03 03:00:00
6:00 AM,62.6,55.4,77,29.95,-9999.0,Variable,4.6,-,N/A,,Clear,0,2014-03-03 03:00:00
6:30 AM,62.6,53.6,72,29.98,-9999.0,WSW,3.5,-,N/A,,Clear,250,2014-03-03 03:30:00
8:00 AM,68.0,50.0,52,30.01,-9999.0,WSW,6.9,-,N/A,,Clear,240,2014-03-03 05:00:00
9:00 AM,72,45,27,30.03,6,,5.8,,,,,,2014-03-03 06:00:00
9:00 AM,71.6,44.6,38,30.01,-9999.0,Variable,5.8,-,N/A,,Clear,0,2014-03-03 06:00:00
10:00 AM,75.2,41.0,29,30.01,-9999.0,NW,6.9,-,N/A,,Clear,310,2014-03-03 07:00:00
11:00 AM,78.8,37.4,23,29.98,-9999.0,WNW,6.9,-,N/A,,Clear,300,2014-03-03 08:00:00
12:00 PM,81,37,12,29.98,7,WNW,6.9,,,,Scattered Clouds,300,2014-03-03 09:00:00
12:00 PM,80.6,37.4,21,29.98,-9999.0,WNW,6.9,-,N/A,,Clear,300,2014-03-03 09:00:00
12:30 PM,82.4,33.8,17,29.95,-9999.0,NW,6.9,-,N/A,,Clear,320,2014-03-03 09:30:00
1:00 PM,82.4,37.4,20,29.92,6.2,WNW,9.2,-,N/A,,Partly Cloudy,300,2014-03-03 10:00:00
2:00 PM,84.2,39.2,20,29.92,-9999.0,NNE,10.4,-,N/A,,Clear,20,2014-03-03 11:00:00
2:30 PM,82.4,42.8,25,29.92,-9999.0,North,11.5,-,N/A,,Clear,10,2014-03-03 11:30:00
3:00 PM,79,51,28,29.92,10,NNE,11.5,,,,Scattered Clouds,30,2014-03-03 12:00:00
3:00 PM,78.8,51.8,39,29.92,-9999.0,NNE,11.5,-,N/A,,Clear,30,2014-03-03 12:00:00
3:30 PM,77.0,51.8,41,29.92,-9999.0,NNE,10.4,-,N/A,,Clear,20,2014-03-03 12:30:00
4:00 PM,75.2,53.6,47,29.92,-9999.0,NNE,11.5,-,N/A,,Clear,20,2014-03-03 13:00:00
4:30 PM,75.2,50.0,41,29.92,-9999.0,North,13.8,-,N/A,,Clear,10,2014-03-03 13:30:00
5:00 PM,73.4,51.8,47,29.92,-9999.0,NNE,10.4,-,N/A,,Clear,20,2014-03-03 14:00:00
5:30 PM,73.4,51.8,47,29.92,-9999.0,NNE,8.1,-,N/A,,Clear,30,2014-03-03 14:30:00
6:00 PM,73,50,33,29.95,9,North,9.2,,,,Scattered Clouds,0,2014-03-03 15:00:00
6:00 PM,73.4,50.0,44,29.95,-9999.0,North,9.2,-,N/A,,Clear,360,2014-03-03 15:00:00
6:30 PM,71.6,50.0,46,29.95,-9999.0,North,12.7,-,N/A,,Clear,10,2014-03-03 15:30:00
7:00 PM,71.6,51.8,50,29.95,-9999.0,NNE,9.2,-,N/A,,Clear,20,2014-03-03 16:00:00
7:30 PM,71.6,51.8,50,29.95,-9999.0,North,5.8,-,N/A,,Clear,360,2014-03-03 16:30:00
8:00 PM,69.8,53.6,56,29.98,-9999.0,North,6.9,-,N/A,,Clear,350,2014-03-03 17:00:00
8:30 PM,69.8,55.4,60,29.98,-9999.0,North,5.8,-,N/A,,Clear,350,2014-03-03 17:30:00
9:00 PM,70,56,53,29.99,9,North,3.5,,,,Scattered Clouds,10,2014-03-03 18:00:00
9:00 PM,69.8,57.2,64,29.98,-9999.0,North,3.5,-,N/A,,Clear,10,2014-03-03 18:00:00
9:30 PM,69.8,57.2,64,29.98,-9999.0,Variable,2.3,-,N/A,,Clear,0,2014-03-03 18:30:00
10:00 PM,69.8,48.2,46,29.98,-9999.0,Variable,2.3,-,N/A,,Clear,0,2014-03-03 19:00:00
11:00 PM,71.6,46.4,41,29.98,-9999.0,West,4.6,-,N/A,,Clear,260,2014-03-03 20:00:00
11:30 PM,69.8,44.6,40,29.95,-9999.0,West,3.5,-,N/A,,Clear,260,2014-03-03 20:30:00